[[{"header":{"parameterUnit":"m.s-1","parameterCategory":2,"la1":30.2991,"la2":30.254,"lo1":-89.0895,"lo2":-89.0444,"dy":0.0017,"dx":0.0017,"nx":28,"ny":28,"refTime":"2024-11-23T03:00:00:Z","depth":"0","parameterNumber":2,"parameterNumberName":"U-component_of_CURRENTS"},"data":[0,0,0,0,0,0,0,0,0,0,0,0,0,0,0,0,0,0,0,0,0,0,0,0,0,0,0,0,0,0,0,0,0,0,0,0,0,0,0,0,0,0,0,0,0,0,0,0,0,0,0,0,0,0,0,0,0,0,0.168,0.168,0,0.1617,0.1615,0.1613,0.1456,0.1454,0.1452,0.145,0.1324,0.1322,0.132,0,0,0,0,0,0,0,0,0,0,0,0,0,0.1585,0.1587,0.168,0.168,0.1681,0.1618,0.1615,0.1613,0.1456,0.1454,0.1452,0.1449,0.1324,0.1322,0.132,0,0,0,0,0,0,0,0,0,0,0,0,0,0.157,0.1588,0.168,0.1607,0.1601,0.1618,0.1615,0.1612,0.1457,0.1454,0.1451,0.1448,0.1325,0.1322,0.132,0.1361,0,0,0.1312,0.1311,0,0,0,0,0,0,0,0,0.1571,0.1572,0.1617,0.1612,0.1606,0.1555,0.1536,0.1531,0.1457,0.1495,0.145,0.1447,0.1408,0.1398,0.1371,0.1355,0.135,0.1312,0.1311,0.131,0.1309,0,0,0,0,0,0,0,0.1573,0.1573,0.1639,0.1618,0.1612,0.1552,0.1545,0.1533,0.1454,0.1491,0.1484,0.1503,0.1401,0.1374,0.1367,0.1348,0.1312,0.131,0.1309,0.1308,0.1522,0.1529,0,0,0,0,0,0,0.162,0.1575,0.1641,0.1639,0.1599,0.1558,0.1549,0.1561,0.1455,0.1442,0.1505,0.1496,0.1379,0.137,0.1362,0.1489,0.131,0.1307,0.1306,0.1515,0.1524,0.1532,0,0,0,0,0,0,0.1618,0.1626,0.1644,0.1618,0.1618,0.1564,0.1577,0.1562,0.1539,0.147,0.1451,0.1501,0.1377,0.1365,0.1403,0.1479,0.1306,0.1304,0.1507,0.1518,0.1528,0.1689,0,0,0,0,0,0,0.1615,0.1626,0.1642,0.1622,0.1622,0.1683,0.1582,0.1563,0.1563,0.1549,0.1461,0.1445,0.1374,0.1408,0.1401,0.1473,0.1302,0.1498,0.1512,0.1525,0.1675,0.1704,0.1729,0,0,0,0,0,0.1612,0.1654,0.1643,0.1651,0.1649,0.1687,0.1681,0.1621,0.1567,0.1581,0.1544,0.1448,0.1489,0.1411,0.1401,0.1474,0.1491,0.1508,0.1523,0.1663,0.1699,0.1729,0,0,0,0,0,0,0.1612,0.1644,0.1629,0.1675,0.1698,0.1667,0.1675,0.1646,0.1622,0.16,0.1516,0.1502,0.1572,0.1529,0.1446,0.1593,0.1485,0.15,0.1595,0.1628,0.1655,0.1648,0.13,0,0,0,0,0,0.1633,0.167,0.1693,0.1731,0.1746,0.1716,0.172,0.1692,0.168,0.1661,0.1618,0.1604,0.1636,0.1631,0.164,0.1702,0.168,0.1761,0.1789,0.1811,0.1812,0.1874,0.1904,0.1585,0.1585,0.1584,0,0,0.1647,0.167,0.169,0.1736,0.173,0.177,0.1705,0.1732,0.1762,0.1659,0.1683,0.1691,0.1682,0.1758,0.1787,0.172,0.1905,0.1832,0.1849,0.1838,0.1893,0.1923,0.195,0.1596,0.1594,0.1592,0,0,0.1709,0.1714,0.1769,0.1797,0.1832,0.1819,0.1844,0.1843,0.1835,0.1885,0.1848,0.192,0.1914,0.1951,0.1963,0.2161,0.2055,0.217,0.2275,0.2337,0.2361,0.2382,0.2427,0.245,0.2171,0.2172,0.2172,0,0.1719,0.1788,0.1794,0.1852,0.1875,0.1853,0.1908,0.1918,0.1934,0.1959,0.1916,0.2015,0.2014,0.2138,0.2217,0.2216,0.2214,0.2131,0.2364,0.2384,0.2403,0.2443,0.2466,0.2182,0.2181,0.218,0.2179,0,0.1826,0.1872,0.1908,0.1965,0.1994,0.2041,0.2067,0.2099,0.2088,0.2101,0.2216,0.2245,0.2294,0.2348,0.2329,0.2496,0.2443,0.239,0.2255,0.2443,0.2476,0.2498,0.2196,0.2192,0.2189,0.2187,0,0,0.1869,0.1961,0.1972,0.2006,0.2052,0.2085,0.2155,0.2221,0.2258,0.2315,0.2385,0.2519,0.2523,0.2548,0.2569,0.2645,0.2807,0.2577,0.2575,0.2577,0.2927,0.2851,0.2865,0.2769,0.2773,0.2776,0.2906,0,0.1943,0.2056,0.2082,0.2172,0.2225,0.2227,0.2286,0.2341,0.2367,0.2433,0.2519,0.259,0.2601,0.2633,0.2728,0.2775,0.2866,0.2776,0.2783,0.2784,0.2656,0.2889,0.278,0.2882,0.2926,0.2929,0.2931,0,0.2042,0.21,0.2195,0.2263,0.2283,0.2324,0.2385,0.2439,0.2529,0.255,0.2645,0.2673,0.2837,0.2791,0.2978,0.2905,0.2946,0.2979,0.2982,0.2859,0.2748,0.2703,0.2917,0.2839,0.2963,0.296,0.2958,0,0.2069,0.2179,0.2243,0.227,0.2344,0.2378,0.2408,0.2479,0.2511,0.2622,0.2641,0.2806,0.2861,0.2971,0.3048,0.3014,0.3205,0.3152,0.3135,0.3128,0.3012,0.2988,0.3107,0.3296,0.3296,0.3295,0.3295,0,0.2136,0.2198,0.2257,0.2294,0.2357,0.24,0.2455,0.2505,0.2565,0.2606,0.2698,0.2752,0.2902,0.3005,0.3086,0.3182,0.3239,0.3204,0.318,0.3073,0.3054,0.2953,0.2908,0.33,0.3299,0.3298,0.3297,0,0.2165,0.221,0.2284,0.2353,0.237,0.241,0.2447,0.2482,0.2537,0.2588,0.2619,0.2735,0.2866,0.3,0.3168,0.3203,0.3233,0.3321,0.318,0.3138,0.303,0.2998,0.2969,0.2917,0.3349,0.3348,0.3348,0,0.2202,0.2238,0.2295,0.2311,0.2337,0.2386,0.2406,0.2464,0.2483,0.2566,0.2587,0.2717,0.2784,0.3003,0.3127,0.3276,0.3193,0.3229,0.3168,0.306,0.3008,0.2878,0.2828,0.31,0.3097,0.3095,0.3093,0,0.2239,0.2236,0.2265,0.2292,0.2315,0.2336,0.2367,0.2372,0.2428,0.2458,0.2494,0.2551,0.2752,0.2848,0.3031,0.3114,0.3075,0.3186,0.3128,0.289,0.2705,0.2628,0.2964,0.3074,0.3076,0.3077,0.3078,0.3079,0.2226,0.2235,0.2233,0.2252,0.227,0.2253,0.2239,0.2261,0.2262,0.2268,0.2372,0.2412,0.2583,0.2825,0.2902,0.2944,0.2945,0.2896,0.2891,0.2787,0.2666,0.2954,0.2987,0.2988,0.299,0.2991,0.2992,0,0.2176,0.2176,0.2194,0.2184,0.2156,0.2187,0.2178,0.2137,0.2099,0.2149,0.2164,0.227,0.2381,0.2541,0.2682,0.2658,0.2588,0.2614,0.2432,0.2421,0.2741,0.2656,0.2551,0.2551,0.2551,0.2551,0.2551,0.2551,0.2138,0.2116,0.2118,0.2053,0.2042,0.1968,0.1937,0.1898,0.1907,0.1881,0.191,0.1997,0.2186,0.2381,0.2426,0.2404,0.2284,0.2185,0.2215,0.2453,0.2479,0.2503,0.2415,0.2261,0.2261,0.1802,0.1799,0.1796]},{"header":{"parameterUnit":"m.s-1","parameterCategory":2,"la1":30.2991,"la2":30.254,"lo1":-89.0895,"lo2":-89.0444,"dy":0.0017,"dx":0.0017,"nx":28,"ny":28,"refTime":"2024-11-23T03:00:00:Z","depth":"0","parameterNumber":3,"parameterNumberName":"V-component_of_CURRENTS"},"data":[0,0,0,0,0,0,0,0,0,0,0,0,0,0,0,0,0,0,0,0,0,0,0,0,0,0,0,0,0,0,0,0,0,0,0,0,0,0,0,0,0,0,0,0,0,0,0,0,0,0,0,0,0,0,0,0,0,0,-0.0072,-0.0072,0,-0.0049,-0.0048,-0.0048,-0.0083,-0.0085,-0.0087,-0.0088,-0.0081,-0.0079,-0.0078,0,0,0,0,0,0,0,0,0,0,0,0,0,-0.0013,-0.0015,-0.0072,-0.0072,-0.0072,-0.0049,-0.0048,-0.0047,-0.0083,-0.0085,-0.0087,-0.0089,-0.0082,-0.008,-0.0078,0,0,0,0,0,0,0,0,0,0,0,0,0,-0.0016,-0.0015,-0.0072,-0.009,-0.0092,-0.0049,-0.0048,-0.0047,-0.0083,-0.0085,-0.0087,-0.009,-0.0082,-0.008,-0.0077,-0.0014,0,0,-0.007,-0.0068,0,0,0,0,0,0,0,0,-0.0016,-0.0018,-0.0087,-0.0089,-0.0091,-0.0075,-0.0025,-0.0038,-0.0082,-0.0082,-0.0088,-0.0091,-0.0081,-0.0079,-0.0063,-0.0013,-0.0013,-0.0069,-0.0068,-0.0067,-0.0066,0,0,0,0,0,0,0,-0.0016,-0.0018,-0.0059,-0.0087,-0.0089,-0.0054,-0.0058,-0.0027,-0.0065,-0.0082,-0.0086,-0.0089,-0.0082,-0.0066,-0.0064,-0.0013,-0.0069,-0.0067,-0.0066,-0.0065,0.0125,0.0128,0,0,0,0,0,0,-0.0031,-0.0018,-0.006,-0.0058,-0.0063,-0.0054,-0.0058,-0.0074,-0.0066,-0.0068,-0.0087,-0.009,-0.0069,-0.0066,-0.0064,0.0031,-0.0067,-0.0064,-0.0063,0.0122,0.0126,0.013,0,0,0,0,0,0,-0.003,-0.0035,-0.0061,-0.004,-0.0042,-0.0054,-0.0071,-0.0073,-0.0067,-0.007,-0.0072,-0.0082,-0.0071,-0.0067,-0.0025,0.0029,-0.0063,-0.0061,0.0117,0.0123,0.0128,0.0207,0,0,0,0,0,0,-0.0029,-0.0035,-0.0041,-0.0042,-0.0044,-0.0024,-0.0069,-0.0071,-0.0067,-0.0072,-0.0065,-0.0067,-0.0072,-0.0029,-0.0023,0.0031,-0.0059,0.0113,0.012,0.0126,0.02,0.0214,0.0226,0,0,0,0,0,-0.0027,-0.0015,-0.0042,-0.0046,-0.0056,-0.0023,-0.0018,-0.0032,-0.0064,-0.004,-0.0039,-0.0068,0.0018,-0.0024,-0.0018,0.0038,0.011,0.0118,0.0126,0.0194,0.0211,0.0226,0,0,0,0,0,0,0.0037,-0.0018,-0.0047,-0.0047,-0.0037,-0.003,-0.0009,-0.0026,-0.0005,-0.0016,-0.003,-0.0028,0.0035,0.0033,-0.0013,0.0117,0.0063,0.0073,0.0113,0.013,0.0143,0.0165,-0.0057,0,0,0,0,0,0.0039,0.0015,-0.0006,0.0002,0.0001,-0.0007,0.0004,-0.0007,0.0005,0.0009,0.0016,0.0036,0.008,0.0096,0.0132,0.0197,0.0173,0.0242,0.0256,0.0267,0.0294,0.0312,0.0328,0.0156,0.0156,0.0155,0,0,0.0077,0.0036,0.0032,0.0011,0.0013,0.0046,-0.0005,0.0017,0.0053,0.0011,0.007,0.0083,0.0109,0.0185,0.0214,0.0183,0.0299,0.0277,0.0286,0.0307,0.0321,0.0338,0.0352,0.0161,0.016,0.0159,0,0,0.0147,0.0094,0.0102,0.0103,0.0091,0.0091,0.0094,0.0102,0.0109,0.0163,0.0153,0.0202,0.025,0.0296,0.032,0.0435,0.037,0.044,0.0522,0.0539,0.0552,0.0564,0.0519,0.0527,0.0444,0.0444,0.0444,0,0.0198,0.0182,0.0126,0.0141,0.0152,0.0112,0.0157,0.0176,0.0202,0.0233,0.0191,0.0308,0.0316,0.0432,0.0468,0.0467,0.0433,0.0448,0.0552,0.0564,0.0574,0.0526,0.0533,0.0449,0.0448,0.0448,0.0447,0,0.0271,0.0263,0.0278,0.0263,0.0283,0.0312,0.0314,0.0348,0.0338,0.0356,0.0449,0.0471,0.0539,0.0556,0.0541,0.0645,0.058,0.0561,0.0499,0.0595,0.0539,0.0545,0.0456,0.0454,0.0452,0.0451,0,0,0.0361,0.0333,0.0332,0.034,0.0337,0.0365,0.0432,0.0489,0.0539,0.0567,0.0649,0.0729,0.0721,0.0752,0.0749,0.0767,0.0792,0.0694,0.0692,0.0629,0.0774,0.0743,0.0744,0.0771,0.0774,0.0776,0.0689,0,0.0435,0.0464,0.0442,0.051,0.0529,0.0522,0.0592,0.0638,0.0663,0.0733,0.0766,0.0835,0.08,0.0825,0.0849,0.0817,0.0816,0.0814,0.0711,0.0708,0.0652,0.0755,0.0708,0.063,0.0694,0.0695,0.0696,0,0.0494,0.0501,0.0559,0.0596,0.0611,0.0662,0.0742,0.08,0.0882,0.0901,0.0972,0.0976,0.1046,0.0975,0.0977,0.0965,0.0887,0.0839,0.0834,0.0791,0.0691,0.0556,0.0637,0.052,0.0703,0.0703,0.0702,0,0.053,0.0578,0.0616,0.0627,0.068,0.0732,0.0777,0.0857,0.0912,0.1003,0.1039,0.1112,0.1129,0.1092,0.1003,0.0981,0.0957,0.0909,0.0806,0.0798,0.0738,0.0723,0.0686,0.0903,0.0903,0.0903,0.0903,0,0.0573,0.061,0.0636,0.0653,0.0747,0.0768,0.0875,0.0931,0.1013,0.1089,0.1121,0.118,0.1154,0.1134,0.1044,0.0951,0.0987,0.085,0.0804,0.0761,0.075,0.0629,0.0567,0.09,0.09,0.0901,0.0902,0,0.0591,0.0598,0.0654,0.0719,0.0752,0.0816,0.0916,0.0989,0.1051,0.1148,0.1174,0.1227,0.1211,0.1157,0.1081,0.0992,0.0833,0.0852,0.0779,0.073,0.0544,0.0488,0.0421,0.037,0.074,0.0739,0.0738,0,0.0602,0.0622,0.069,0.0736,0.0769,0.0859,0.0926,0.1005,0.107,0.1173,0.1218,0.1241,0.1267,0.1155,0.1022,0.0881,0.0784,0.0719,0.0706,0.0562,0.0466,0.043,0.039,0.0621,0.0619,0.0618,0.0617,0,0.0644,0.0653,0.0693,0.0765,0.0837,0.0922,0.1012,0.1065,0.1153,0.1223,0.1292,0.1319,0.1234,0.1113,0.0938,0.0825,0.0636,0.0688,0.0576,0.0427,0.0351,0.0268,0.0599,0.0606,0.0607,0.0608,0.0608,0.0609,0.0679,0.0712,0.0743,0.0816,0.0889,0.0964,0.1027,0.111,0.12,0.1298,0.1324,0.1366,0.119,0.0972,0.0808,0.0498,0.0535,0.039,0.0341,0.0324,0.028,0.0575,0.0519,0.052,0.052,0.0521,0.0521,0,0.0722,0.0742,0.0801,0.0872,0.0927,0.0965,0.1071,0.1125,0.1211,0.1308,0.1366,0.1304,0.1043,0.0801,0.0406,0.0186,0.0113,0.0073,0.0004,-0.0013,0.0268,0.027,0.0115,0.0115,0.0115,0.0116,0.0116,0.0116,0.0744,0.0787,0.0798,0.0879,0.0926,0.1002,0.1052,0.1137,0.1215,0.1315,0.1352,0.1383,0.1198,0.0478,-0.0017,-0.0125,-0.0265,-0.0304,-0.0341,-0.0175,-0.0149,-0.0125,-0.0136,-0.0373,-0.0373,-0.0616,-0.0618,-0.062]}],[{"header":{"parameterUnit":"m.s-1","parameterCategory":2,"la1":30.2991,"la2":30.254,"lo1":-89.0895,"lo2":-89.0444,"dy":0.0017,"dx":0.0017,"nx":28,"ny":28,"refTime":"2024-11-23T03:00:00:Z","depth":"2","parameterNumber":2,"parameterNumberName":"U-component_of_CURRENTS"},"data":[0,0,0,0,0,0,0,0,0,0,0,0,0,0,0,0,0,0,0,0,0,0,0,0,0,0,0,0,0,0,0,0,0,0,0,0,0,0,0,0,0,0,0,0,0,0,0,0,0,0,0,0,0,0,0,0,0,0,-0.0069,-0.0067,0,0.0115,0.0118,0.012,0.0193,0.0192,0.019,0.0189,0.0243,0.0245,0.0248,0,0,0,0,0,0,0,0,0,0,0,0,0,-0.0119,-0.0119,-0.0069,-0.0067,-0.0066,0.0115,0.0118,0.0121,0.0193,0.0191,0.019,0.0189,0.0242,0.0245,0.0248,0,0,0,0,0,0,0,0,0,0,0,0,0,-0.0027,-0.0119,-0.0069,-0.0013,-0.0006,0.0114,0.0118,0.0122,0.0193,0.0191,0.019,0.0188,0.0241,0.0245,0.0248,0.0303,0,0,0.026,0.0261,0,0,0,0,0,0,0,0,-0.0033,-0.0025,-0.0023,-0.0016,-0.0009,0.0124,0.012,0.0174,0.0193,0.0124,0.0189,0.0188,0.0188,0.0196,0.0245,0.0305,0.0308,0.026,0.0262,0.0264,0.0265,0,0,0,0,0,0,0,-0.0039,-0.0031,0.001,-0.0021,-0.0013,0.0085,0.0095,0.0133,0.0165,0.013,0.0134,0.0145,0.0192,0.0242,0.0246,0.0309,0.026,0.0263,0.0265,0.0267,0.0499,0.0502,0,0,0,0,0,0,-0.0085,-0.0038,0.0004,0.0015,-0.0032,0.0086,0.0098,0.0088,0.0168,0.0178,0.0146,0.0148,0.0236,0.0242,0.0248,0.0377,0.0264,0.0267,0.0269,0.0495,0.0499,0.0504,0,0,0,0,0,0,-0.0088,-0.0084,-0.0003,-0.001,0.0006,0.0086,0.0077,0.0092,0.0169,0.0181,0.0189,0.0208,0.0235,0.0243,0.0321,0.0376,0.0269,0.0272,0.049,0.0496,0.0502,0.0595,0,0,0,0,0,0,-0.009,-0.0086,-0.008,-0.0015,0.0004,0.0088,0.0078,0.0097,0.0173,0.0178,0.0236,0.0238,0.0235,0.0316,0.0324,0.0379,0.0275,0.0485,0.0493,0.05,0.0587,0.0603,0.0617,0,0,0,0,0,-0.0093,-0.008,-0.0081,-0.0075,-0.0001,0.0089,0.0111,0.0168,0.0178,0.023,0.0272,0.0238,0.0369,0.0322,0.0331,0.0388,0.0481,0.0491,0.0499,0.058,0.06,0.0617,0,0,0,0,0,0,-0.0084,-0.007,-0.007,-0.0052,0.0018,0.0099,0.016,0.0193,0.0276,0.0285,0.029,0.0298,0.0385,0.0387,0.0335,0.0482,0.042,0.0431,0.0478,0.0497,0.0512,0.045,0.0278,0,0,0,0,0,-0.0088,-0.0079,-0.0037,-0.0011,0.0022,0.0099,0.0151,0.019,0.0256,0.0295,0.035,0.0396,0.0431,0.0461,0.0504,0.0587,0.056,0.0633,0.0649,0.0661,0.0622,0.0664,0.0678,0.0533,0.0533,0.0533,0,0,-0.007,-0.0065,-0.0054,-0.0007,0.0055,0.0117,0.013,0.0222,0.0283,0.0283,0.0417,0.0455,0.0467,0.056,0.0599,0.0566,0.0697,0.0673,0.0683,0.0635,0.0675,0.0688,0.07,0.0539,0.0538,0.0537,0,0,-0.0032,-0.0029,-0.0004,0.0045,0.0121,0.0169,0.0196,0.031,0.0372,0.0488,0.0498,0.0565,0.0667,0.0679,0.0688,0.0815,0.0776,0.0855,0.0881,0.0926,0.0936,0.0945,0.0949,0.0957,0.0864,0.0864,0.0864,0,0.0006,0.0006,0.0032,0.0072,0.0118,0.0187,0.0248,0.0326,0.0461,0.0509,0.0538,0.0676,0.0707,0.075,0.0807,0.0842,0.0852,0.0804,0.094,0.0948,0.0955,0.0957,0.0965,0.087,0.0869,0.0868,0.0868,0,0.0046,0.0067,0.0101,0.015,0.0211,0.0286,0.0361,0.0461,0.0544,0.0607,0.0716,0.0776,0.0841,0.0884,0.0883,0.0958,0.0946,0.0951,0.0878,0.0974,0.0972,0.0978,0.0878,0.0875,0.0874,0.0872,0,0,0.0109,0.0124,0.0144,0.0163,0.0255,0.0312,0.0414,0.0516,0.0578,0.071,0.0784,0.0877,0.0914,0.0925,0.0952,0.0989,0.1077,0.1003,0.1003,0.0977,0.116,0.1041,0.1035,0.1122,0.1124,0.1125,0.1144,0,0.0158,0.0197,0.0208,0.0293,0.0329,0.04,0.0482,0.0576,0.0675,0.0779,0.0821,0.0912,0.0926,0.0979,0.1018,0.1046,0.1095,0.1069,0.1093,0.1092,0.095,0.1039,0.1004,0.1009,0.1149,0.115,0.1151,0,0.0199,0.0218,0.027,0.0326,0.0356,0.0423,0.0547,0.0629,0.0744,0.082,0.0891,0.0942,0.0996,0.1022,0.1081,0.1072,0.1129,0.1147,0.1149,0.099,0.0983,0.0935,0.1014,0.116,0.1159,0.1159,0.1158,0,0.0196,0.0268,0.0297,0.0323,0.0402,0.0462,0.0535,0.0652,0.0719,0.0851,0.0906,0.0972,0.102,0.1076,0.11,0.1132,0.1139,0.1194,0.1129,0.1121,0.1061,0.1043,0.1266,0.1266,0.1266,0.1265,0.1265,0,0.0205,0.0243,0.0302,0.0321,0.0401,0.0465,0.0565,0.0653,0.0755,0.0815,0.0925,0.096,0.1049,0.106,0.1098,0.1079,0.1145,0.1116,0.1119,0.1096,0.1082,0.1179,0.1169,0.1266,0.1266,0.1266,0.1266,0,0.0166,0.0196,0.0247,0.0344,0.0385,0.0448,0.057,0.0631,0.0741,0.0818,0.0862,0.0962,0.0995,0.1015,0.1082,0.1064,0.1067,0.1061,0.0989,0.0982,0.1034,0.103,0.1028,0.1024,0.1021,0.1018,0.1015,0,0.0124,0.0141,0.0256,0.0298,0.0347,0.0444,0.0506,0.0624,0.0673,0.0796,0.0809,0.0889,0.0919,0.0906,0.0907,0.0915,0.0987,0.0877,0.0931,0.1007,0.1012,0.1012,0.1012,0.0917,0.0914,0.0912,0.091,0,0.007,0.0127,0.0173,0.0262,0.0337,0.0408,0.0501,0.0527,0.0644,0.0706,0.0764,0.0803,0.0819,0.081,0.0785,0.0781,0.0863,0.0825,0.0952,0.0952,0.0896,0.0902,0.0907,0.0888,0.089,0.0892,0.0893,0.0894,0.0049,0.0075,0.0152,0.0237,0.0316,0.038,0.043,0.049,0.0551,0.0634,0.0659,0.0705,0.0692,0.0657,0.0645,0.0667,0.0727,0.0744,0.0756,0.077,0.0723,0.0661,0.0599,0.06,0.06,0.06,0.0601,0,0.0024,0.0068,0.0125,0.022,0.028,0.0364,0.0429,0.0447,0.0497,0.0543,0.0591,0.0524,0.053,0.0568,0.0594,0.0575,0.0617,0.0564,0.066,0.0679,0.0697,0.0651,0.0506,0.0506,0.0506,0.0506,0,0,0.0013,0.0048,0.0078,0.0168,0.0258,0.0348,0.0396,0.0407,0.0424,0.0433,0.047,0.0459,0.0503,0.0471,0.0475,0.053,0.0596,0.05,0.057,0.0699,0.0717,0.0785,0.0731,0,0,0,0,0]},{"header":{"parameterUnit":"m.s-1","parameterCategory":2,"la1":30.2991,"la2":30.254,"lo1":-89.0895,"lo2":-89.0444,"dy":0.0017,"dx":0.0017,"nx":28,"ny":28,"refTime":"2024-11-23T03:00:00:Z","depth":"2","parameterNumber":3,"parameterNumberName":"V-component_of_CURRENTS"},"data":[0,0,0,0,0,0,0,0,0,0,0,0,0,0,0,0,0,0,0,0,0,0,0,0,0,0,0,0,0,0,0,0,0,0,0,0,0,0,0,0,0,0,0,0,0,0,0,0,0,0,0,0,0,0,0,0,0,0,-0.0481,-0.0482,0,-0.0475,-0.0474,-0.0474,-0.0467,-0.0467,-0.0468,-0.0468,-0.0488,-0.0488,-0.0488,0,0,0,0,0,0,0,0,0,0,0,0,0,-0.0442,-0.0443,-0.0481,-0.0482,-0.0482,-0.0475,-0.0474,-0.0474,-0.0467,-0.0467,-0.0468,-0.0468,-0.0488,-0.0488,-0.0488,0,0,0,0,0,0,0,0,0,0,0,0,0,-0.0445,-0.0443,-0.0481,-0.0481,-0.0481,-0.0475,-0.0474,-0.0473,-0.0467,-0.0467,-0.0468,-0.0468,-0.0488,-0.0488,-0.0488,-0.0481,0,0,-0.0489,-0.0489,0,0,0,0,0,0,0,0,-0.0445,-0.0446,-0.0481,-0.0481,-0.0481,-0.0476,-0.0468,-0.0479,-0.0467,-0.0468,-0.0468,-0.0468,-0.0489,-0.0489,-0.048,-0.0482,-0.0483,-0.0489,-0.049,-0.049,-0.049,0,0,0,0,0,0,0,-0.0445,-0.0446,-0.0474,-0.0481,-0.0481,-0.0466,-0.0467,-0.0469,-0.0473,-0.0467,-0.0468,-0.0474,-0.0489,-0.048,-0.0481,-0.0483,-0.0489,-0.049,-0.049,-0.049,-0.0514,-0.0515,0,0,0,0,0,0,-0.0457,-0.0446,-0.0474,-0.0474,-0.0469,-0.0467,-0.0467,-0.0474,-0.0472,-0.0473,-0.0474,-0.0474,-0.0479,-0.048,-0.0481,-0.0508,-0.049,-0.049,-0.049,-0.0514,-0.0514,-0.0515,0,0,0,0,0,0,-0.0456,-0.0459,-0.0475,-0.0464,-0.0465,-0.0468,-0.0474,-0.0473,-0.0473,-0.0477,-0.0478,-0.0476,-0.0479,-0.0481,-0.0502,-0.0508,-0.049,-0.049,-0.0513,-0.0514,-0.0515,-0.0539,0,0,0,0,0,0,-0.0455,-0.0459,-0.0472,-0.0465,-0.0466,-0.047,-0.0474,-0.0473,-0.0478,-0.0478,-0.048,-0.0481,-0.048,-0.0502,-0.0503,-0.0508,-0.0491,-0.0513,-0.0514,-0.0514,-0.0537,-0.054,-0.0543,0,0,0,0,0,-0.0453,-0.0461,-0.0472,-0.0476,-0.0483,-0.047,-0.0469,-0.0469,-0.0478,-0.0471,-0.0489,-0.0482,-0.0507,-0.0503,-0.0504,-0.0509,-0.0512,-0.0513,-0.0514,-0.0536,-0.054,-0.0542,0,0,0,0,0,0,-0.0441,-0.0462,-0.0474,-0.0486,-0.0483,-0.0471,-0.0473,-0.0474,-0.0479,-0.0488,-0.0492,-0.0495,-0.0517,-0.0509,-0.0505,-0.0518,-0.0506,-0.0507,-0.0523,-0.0526,-0.0528,-0.0528,-0.0491,0,0,0,0,0,-0.0449,-0.0467,-0.0472,-0.0481,-0.0484,-0.0482,-0.0481,-0.0478,-0.0482,-0.0485,-0.0489,-0.05,-0.0518,-0.0521,-0.0529,-0.0536,-0.0529,-0.0538,-0.054,-0.0542,-0.0543,-0.0532,-0.0533,-0.0518,-0.0518,-0.0518,0,0,-0.0448,-0.0462,-0.0473,-0.0482,-0.0482,-0.0479,-0.0481,-0.0478,-0.048,-0.0488,-0.0497,-0.0513,-0.0525,-0.0538,-0.0545,-0.0533,-0.0547,-0.0544,-0.0546,-0.0545,-0.0533,-0.0534,-0.0536,-0.0519,-0.0519,-0.0519,0,0,-0.0445,-0.0466,-0.0478,-0.048,-0.0488,-0.048,-0.0483,-0.0477,-0.0483,-0.0491,-0.051,-0.0537,-0.0537,-0.0559,-0.0569,-0.059,-0.0567,-0.058,-0.0586,-0.0576,-0.0577,-0.0578,-0.0585,-0.0586,-0.0574,-0.0574,-0.0574,0,-0.044,-0.046,-0.0475,-0.0482,-0.0483,-0.0483,-0.0479,-0.0484,-0.0486,-0.0498,-0.0497,-0.0539,-0.0551,-0.0592,-0.0596,-0.0598,-0.0582,-0.0575,-0.0579,-0.0579,-0.0579,-0.0586,-0.0587,-0.0575,-0.0575,-0.0575,-0.0575,0,-0.0448,-0.0462,-0.0465,-0.048,-0.0476,-0.0471,-0.0479,-0.048,-0.0487,-0.0497,-0.0536,-0.0563,-0.0583,-0.0595,-0.06,-0.0617,-0.0604,-0.0589,-0.057,-0.0582,-0.0589,-0.059,-0.0577,-0.0576,-0.0576,-0.0576,0,0,-0.0441,-0.0464,-0.047,-0.0471,-0.0475,-0.0466,-0.0475,-0.0481,-0.0488,-0.0515,-0.0536,-0.0586,-0.0601,-0.0614,-0.0634,-0.0631,-0.0633,-0.0602,-0.0601,-0.0608,-0.0609,-0.0546,-0.0541,-0.0602,-0.0602,-0.0602,-0.0618,0,-0.044,-0.0452,-0.0461,-0.0457,-0.0459,-0.0459,-0.0458,-0.0469,-0.0479,-0.0499,-0.056,-0.0579,-0.0609,-0.061,-0.0626,-0.0627,-0.0631,-0.063,-0.0597,-0.0596,-0.0537,-0.0538,-0.0546,-0.0554,-0.0618,-0.0618,-0.0618,0,-0.0451,-0.0457,-0.0454,-0.0446,-0.0445,-0.0439,-0.0432,-0.043,-0.0466,-0.0473,-0.0523,-0.0553,-0.0601,-0.0599,-0.0633,-0.062,-0.0615,-0.0618,-0.0618,-0.0548,-0.0533,-0.0549,-0.0553,-0.0619,-0.0619,-0.0619,-0.0619,0,-0.0442,-0.0451,-0.0444,-0.0445,-0.0434,-0.043,-0.0421,-0.0433,-0.0417,-0.0457,-0.0444,-0.0525,-0.0534,-0.0562,-0.0582,-0.0588,-0.0595,-0.0606,-0.056,-0.0557,-0.0552,-0.0547,-0.0611,-0.0611,-0.0611,-0.0611,-0.0611,0,-0.0433,-0.0432,-0.0444,-0.0438,-0.042,-0.0422,-0.0398,-0.0395,-0.0392,-0.0365,-0.0431,-0.0425,-0.0509,-0.053,-0.0567,-0.0562,-0.0583,-0.0561,-0.0549,-0.0562,-0.0557,-0.0601,-0.0599,-0.0612,-0.0612,-0.0612,-0.0612,0,-0.041,-0.0424,-0.0411,-0.041,-0.041,-0.0395,-0.0361,-0.0336,-0.0332,-0.0297,-0.0295,-0.0338,-0.0356,-0.0438,-0.0475,-0.0509,-0.0528,-0.0516,-0.0533,-0.0521,-0.0511,-0.0511,-0.0484,-0.0482,-0.048,-0.0478,-0.0477,0,-0.0394,-0.0387,-0.0384,-0.0367,-0.0363,-0.0347,-0.0319,-0.0307,-0.0269,-0.0232,-0.0207,-0.0222,-0.0226,-0.029,-0.036,-0.042,-0.0454,-0.0443,-0.0458,-0.0503,-0.0495,-0.0498,-0.05,-0.0484,-0.0483,-0.0482,-0.0481,0,-0.0345,-0.0346,-0.0329,-0.0305,-0.0283,-0.0246,-0.0213,-0.0178,-0.0141,-0.0097,-0.0041,-0.0043,-0.0114,-0.0192,-0.0271,-0.0315,-0.0442,-0.042,-0.0461,-0.0493,-0.0498,-0.0491,-0.0495,-0.0473,-0.0474,-0.0474,-0.0475,-0.0475,-0.0298,-0.0276,-0.0254,-0.0225,-0.0193,-0.0135,-0.0093,-0.0044,0.0033,0.0114,0.0083,0.009,-0.0077,-0.0164,-0.0241,-0.0312,-0.0325,-0.038,-0.0386,-0.0392,-0.0367,-0.0365,-0.0313,-0.0313,-0.0313,-0.0313,-0.0313,0,-0.0224,-0.0205,-0.0172,-0.0128,-0.0071,-0.0072,-0.0,0.0053,0.0154,0.0183,0.0234,0.0105,0.0014,-0.0131,-0.0221,-0.0287,-0.0326,-0.0312,-0.0378,-0.0386,-0.0393,-0.0371,-0.0317,-0.0316,-0.0316,-0.0316,0,0,-0.0184,-0.0132,-0.0119,-0.0022,0.0015,0.0103,0.015,0.0224,0.0246,0.0283,0.0272,0.021,0.0003,-0.0082,-0.0207,-0.0247,-0.0293,-0.0251,-0.0245,-0.0319,-0.0324,-0.0432,-0.0405,0,0,0,0,0]}],[{"header":{"parameterUnit":"m.s-1","parameterCategory":2,"la1":30.2991,"la2":30.254,"lo1":-89.0895,"lo2":-89.0444,"dy":0.0017,"dx":0.0017,"nx":28,"ny":28,"refTime":"2024-11-23T03:00:00:Z","depth":"4","parameterNumber":2,"parameterNumberName":"U-component_of_CURRENTS"},"data":[0,0,0,0,0,0,0,0,0,0,0,0,0,0,0,0,0,0,0,0,0,0,0,0,0,0,0,0,0,0,0,0,0,0,0,0,0,0,0,0,0,0,0,0,0,0,0,0,0,0,0,0,0,0,0,0,0,0,-0.0251,-0.0252,0,-0.0292,-0.0293,-0.0293,-0.0299,-0.0298,-0.0298,-0.0298,-0.0296,-0.0296,-0.0297,0,0,0,0,0,0,0,0,0,0,0,0,0,-0.0226,-0.0226,-0.0251,-0.0252,-0.0252,-0.0292,-0.0293,-0.0293,-0.0299,-0.0298,-0.0298,-0.0298,-0.0296,-0.0296,-0.0297,0,0,0,0,0,0,0,0,0,0,0,0,0,-0.0248,-0.0226,-0.0251,-0.026,-0.0262,-0.0292,-0.0293,-0.0293,-0.0299,-0.0298,-0.0298,-0.0297,-0.0296,-0.0296,-0.0297,-0.0309,0,0,-0.0298,-0.0298,0,0,0,0,0,0,0,0,-0.0247,-0.0249,-0.0258,-0.026,-0.0261,-0.029,-0.0283,-0.0297,-0.0299,-0.0284,-0.0298,-0.0297,-0.0291,-0.0292,-0.03,-0.0309,-0.0309,-0.0298,-0.0298,-0.0298,-0.0299,0,0,0,0,0,0,0,-0.0245,-0.0248,-0.0267,-0.0259,-0.0261,-0.0279,-0.0281,-0.0286,-0.0289,-0.0285,-0.0286,-0.0292,-0.0291,-0.03,-0.03,-0.0309,-0.0298,-0.0298,-0.0299,-0.0299,-0.0332,-0.0332,0,0,0,0,0,0,-0.024,-0.0246,-0.0266,-0.0268,-0.0254,-0.028,-0.0282,-0.0281,-0.0289,-0.0291,-0.0292,-0.0292,-0.03,-0.03,-0.03,-0.0312,-0.0298,-0.0299,-0.0299,-0.0331,-0.0332,-0.0332,0,0,0,0,0,0,-0.0239,-0.0241,-0.0264,-0.0259,-0.0263,-0.028,-0.0279,-0.0282,-0.0291,-0.0295,-0.0295,-0.0298,-0.0299,-0.03,-0.0307,-0.0312,-0.0299,-0.0299,-0.033,-0.0331,-0.0332,-0.0337,0,0,0,0,0,0,-0.0238,-0.024,-0.024,-0.0258,-0.0263,-0.0282,-0.028,-0.0283,-0.0295,-0.0295,-0.03,-0.03,-0.0299,-0.0307,-0.0308,-0.0312,-0.03,-0.0329,-0.0331,-0.0332,-0.0336,-0.0338,-0.034,0,0,0,0,0,-0.0237,-0.0241,-0.024,-0.0243,-0.0262,-0.0283,-0.0287,-0.0298,-0.0296,-0.0302,-0.0306,-0.0299,-0.0315,-0.0308,-0.0309,-0.0313,-0.0329,-0.033,-0.0332,-0.0335,-0.0337,-0.0339,0,0,0,0,0,0,-0.0239,-0.0243,-0.0242,-0.0249,-0.0263,-0.0284,-0.0294,-0.0299,-0.0309,-0.0307,-0.0307,-0.0307,-0.0318,-0.0317,-0.0309,-0.0328,-0.0321,-0.0323,-0.0323,-0.0326,-0.0327,-0.0314,-0.03,0,0,0,0,0,-0.0237,-0.0238,-0.0249,-0.0258,-0.0262,-0.0277,-0.0288,-0.0293,-0.0304,-0.0309,-0.0314,-0.0319,-0.0326,-0.0326,-0.0335,-0.0342,-0.0339,-0.0347,-0.0349,-0.035,-0.0341,-0.0358,-0.036,-0.0337,-0.0337,-0.0337,0,0,-0.0245,-0.0246,-0.0249,-0.0258,-0.0269,-0.0279,-0.0282,-0.0298,-0.0307,-0.0306,-0.032,-0.0327,-0.0331,-0.0342,-0.0346,-0.034,-0.0354,-0.0352,-0.0353,-0.0343,-0.0359,-0.0361,-0.0363,-0.0338,-0.0338,-0.0338,0,0,-0.0258,-0.0256,-0.0259,-0.0266,-0.0277,-0.0286,-0.0289,-0.0307,-0.0313,-0.0328,-0.0331,-0.0338,-0.0352,-0.0354,-0.0356,-0.0373,-0.0367,-0.0379,-0.0372,-0.0388,-0.039,-0.0391,-0.0383,-0.0383,-0.0376,-0.0376,-0.0376,0,-0.0267,-0.0266,-0.0267,-0.0269,-0.0277,-0.0287,-0.0295,-0.0306,-0.0326,-0.0328,-0.0332,-0.0349,-0.0356,-0.0359,-0.0367,-0.0375,-0.0377,-0.0361,-0.039,-0.0391,-0.0392,-0.0383,-0.0384,-0.0376,-0.0376,-0.0376,-0.0376,0,-0.0277,-0.0278,-0.0283,-0.0282,-0.0291,-0.0303,-0.0311,-0.0322,-0.0331,-0.0337,-0.0346,-0.0357,-0.0361,-0.0371,-0.0374,-0.0385,-0.038,-0.0393,-0.0381,-0.0395,-0.0384,-0.0385,-0.0377,-0.0377,-0.0376,-0.0376,0,0,-0.0296,-0.029,-0.0292,-0.029,-0.0297,-0.0306,-0.0317,-0.0327,-0.0331,-0.0343,-0.0344,-0.0361,-0.0359,-0.0361,-0.0366,-0.0378,-0.0392,-0.0389,-0.0389,-0.0373,-0.0412,-0.0324,-0.0316,-0.0415,-0.0415,-0.0416,-0.0397,0,-0.0306,-0.0306,-0.0302,-0.0312,-0.0313,-0.0318,-0.0326,-0.0333,-0.0343,-0.0346,-0.0345,-0.0351,-0.0357,-0.036,-0.0371,-0.0382,-0.0395,-0.0394,-0.0406,-0.0406,-0.0321,-0.0314,-0.0417,-0.0398,-0.0398,-0.0398,-0.0398,0,-0.0315,-0.0312,-0.0316,-0.0315,-0.0317,-0.0324,-0.0332,-0.0341,-0.0342,-0.0345,-0.034,-0.0341,-0.0336,-0.0356,-0.0366,-0.0366,-0.0391,-0.0404,-0.0404,-0.0318,-0.0318,-0.0384,-0.0399,-0.0399,-0.0399,-0.0399,-0.0399,0,-0.0321,-0.0323,-0.0324,-0.0325,-0.0326,-0.033,-0.0334,-0.0339,-0.0342,-0.0341,-0.0337,-0.0331,-0.0324,-0.0348,-0.0348,-0.0371,-0.0356,-0.0397,-0.034,-0.0333,-0.0417,-0.0416,-0.0428,-0.0428,-0.0428,-0.0428,-0.0428,0,-0.0327,-0.033,-0.0326,-0.0326,-0.033,-0.0331,-0.0336,-0.034,-0.0338,-0.0329,-0.0333,-0.0317,-0.0329,-0.0313,-0.0335,-0.0301,-0.0344,-0.0323,-0.0321,-0.0419,-0.0418,-0.0417,-0.0416,-0.0427,-0.0427,-0.0427,-0.0427,0,-0.0331,-0.0328,-0.0329,-0.033,-0.033,-0.0334,-0.0333,-0.0332,-0.0335,-0.0322,-0.0318,-0.0303,-0.0271,-0.026,-0.0277,-0.0268,-0.0263,-0.0255,-0.032,-0.0324,-0.024,-0.0239,-0.0199,-0.0196,-0.0193,-0.019,-0.0189,0,-0.0329,-0.033,-0.0331,-0.0327,-0.0327,-0.033,-0.0326,-0.0329,-0.0323,-0.0307,-0.0292,-0.0258,-0.0241,-0.0168,-0.0178,-0.0165,-0.0183,-0.0173,-0.0244,-0.0213,-0.0216,-0.022,-0.0223,-0.0184,-0.0183,-0.0183,-0.0182,0,-0.0329,-0.0331,-0.0331,-0.0321,-0.0317,-0.0311,-0.0305,-0.0296,-0.0289,-0.0298,-0.0246,-0.0211,-0.0159,-0.0129,-0.0091,-0.0105,-0.0168,-0.0145,-0.0153,-0.022,-0.0195,-0.0201,-0.0208,-0.0172,-0.0174,-0.0174,-0.0175,0,-0.0328,-0.0327,-0.032,-0.031,-0.0301,-0.0278,-0.0283,-0.0256,-0.0246,-0.0229,-0.0208,-0.0169,-0.0153,-0.0097,-0.0073,-0.0042,-0.0075,-0.0097,-0.0108,-0.0119,-0.0097,-0.0054,0.0028,0,0,0,0,0,-0.0324,-0.0314,-0.0304,-0.0281,-0.0268,-0.0259,-0.0256,-0.0259,-0.0254,-0.0206,-0.0204,-0.0154,-0.009,-0.0073,-0.0029,-0.005,-0.008,0.0002,-0.0114,-0.0118,-0.0129,-0.0108,0,0,0,0,0,0,-0.0317,-0.0312,-0.0299,-0.0252,-0.0229,-0.0208,-0.0204,-0.0205,-0.0179,-0.0176,-0.0142,-0.0136,-0.008,-0.0107,-0.0023,-0.0016,-0.0082,0.0022,0.0023,-0.0112,-0.0122,-0.0131,-0.0113,0,0,0,0,0]},{"header":{"parameterUnit":"m.s-1","parameterCategory":2,"la1":30.2991,"la2":30.254,"lo1":-89.0895,"lo2":-89.0444,"dy":0.0017,"dx":0.0017,"nx":28,"ny":28,"refTime":"2024-11-23T03:00:00:Z","depth":"4","parameterNumber":3,"parameterNumberName":"V-component_of_CURRENTS"},"data":[0,0,0,0,0,0,0,0,0,0,0,0,0,0,0,0,0,0,0,0,0,0,0,0,0,0,0,0,0,0,0,0,0,0,0,0,0,0,0,0,0,0,0,0,0,0,0,0,0,0,0,0,0,0,0,0,0,0,0.012,0.012,0,0.0091,0.0091,0.009,0.011,0.0111,0.0111,0.0112,0.0103,0.0102,0.0101,0,0,0,0,0,0,0,0,0,0,0,0,0,0.0161,0.016,0.012,0.012,0.0119,0.0091,0.0091,0.009,0.011,0.0111,0.0112,0.0113,0.0104,0.0102,0.0101,0,0,0,0,0,0,0,0,0,0,0,0,0,0.0139,0.016,0.012,0.0125,0.0125,0.0091,0.0091,0.009,0.0109,0.0111,0.0112,0.0113,0.0104,0.0103,0.0101,0.0067,0,0,0.0096,0.0096,0,0,0,0,0,0,0,0,0.014,0.0138,0.0125,0.0125,0.0125,0.0105,0.0102,0.0083,0.0109,0.0116,0.0112,0.0114,0.0104,0.0103,0.0095,0.0066,0.0066,0.0096,0.0095,0.0095,0.0094,0,0,0,0,0,0,0,0.0142,0.0139,0.0109,0.0124,0.0124,0.0118,0.0116,0.0098,0.0104,0.0116,0.0117,0.0112,0.0105,0.0097,0.0095,0.0066,0.0096,0.0095,0.0094,0.0093,0.0008,0.0007,0,0,0,0,0,0,0.0144,0.014,0.011,0.0108,0.0135,0.0116,0.0115,0.011,0.0104,0.0104,0.0111,0.0113,0.0099,0.0097,0.0095,0.0069,0.0095,0.0093,0.0092,0.001,0.0008,0.0007,0,0,0,0,0,0,0.0145,0.0142,0.0111,0.0123,0.0119,0.0114,0.0109,0.0109,0.0108,0.01,0.0101,0.0112,0.0099,0.0097,0.0078,0.0068,0.0093,0.0091,0.0011,0.0009,0.0007,0.0007,0,0,0,0,0,0,0.0147,0.0142,0.0138,0.0123,0.0118,0.0094,0.0108,0.0108,0.0103,0.0106,0.01,0.0101,0.01,0.008,0.0076,0.0067,0.009,0.0013,0.001,0.0008,0.0008,0.0005,0.0002,0,0,0,0,0,0.0148,0.0134,0.0138,0.0134,0.0113,0.0094,0.009,0.0092,0.0102,0.0097,0.0091,0.0101,0.0061,0.0077,0.0073,0.0063,0.0014,0.0011,0.0008,0.001,0.0006,0.0002,0,0,0,0,0,0,0.0142,0.0135,0.0138,0.0121,0.0111,0.0097,0.0088,0.009,0.0081,0.0086,0.0084,0.0083,0.0058,0.0055,0.0073,0.0028,0.0038,0.0034,0.0041,0.0037,0.0034,0.0043,0.0089,0,0,0,0,0,0.014,0.0131,0.0122,0.0107,0.0104,0.0097,0.0089,0.0091,0.008,0.0079,0.0072,0.0059,0.0038,0.0036,0.0014,-0.0007,-0.0011,-0.0019,-0.0022,-0.0024,-0.0022,-0.0043,-0.0047,-0.0003,-0.0003,-0.0003,0,0,0.0129,0.0125,0.0119,0.0106,0.0099,0.0093,0.0096,0.0084,0.0081,0.0077,0.0066,0.0044,0.0027,0.0001,-0.0009,0.0003,-0.0041,-0.0028,-0.003,-0.0027,-0.0046,-0.005,-0.0053,-0.0005,-0.0005,-0.0005,0,0,0.0109,0.0106,0.0098,0.0094,0.0086,0.0083,0.0082,0.007,0.007,0.005,0.0042,0.0016,-0.0009,-0.0025,-0.0035,-0.0072,-0.0064,-0.008,-0.0078,-0.0098,-0.0101,-0.0104,-0.0115,-0.0118,-0.0073,-0.0073,-0.0073,0,0.0096,0.0094,0.0089,0.0085,0.0084,0.0083,0.0079,0.0072,0.0054,0.0046,0.0048,-0.0007,-0.0022,-0.0051,-0.0065,-0.0077,-0.0083,-0.0056,-0.01,-0.0102,-0.0105,-0.0116,-0.012,-0.0073,-0.0073,-0.0073,-0.0073,0,0.0079,0.0079,0.0072,0.0075,0.0068,0.0063,0.0061,0.005,0.0048,0.0039,0.0005,-0.0024,-0.0054,-0.0067,-0.0076,-0.0108,-0.0104,-0.0106,-0.0082,-0.0109,-0.0119,-0.0123,-0.0074,-0.0073,-0.0073,-0.0073,0,0,0.0046,0.006,0.0058,0.0068,0.0069,0.0062,0.0054,0.0044,0.0035,0.0015,-0.0004,-0.0047,-0.0064,-0.0078,-0.0097,-0.0111,-0.0141,-0.0113,-0.0114,-0.011,-0.0177,-0.0166,-0.0169,-0.0144,-0.0145,-0.0146,-0.0175,0,0.0037,0.004,0.0046,0.0048,0.0054,0.0054,0.0046,0.0035,0.002,-0.0003,-0.0026,-0.006,-0.0065,-0.0088,-0.0103,-0.0138,-0.0152,-0.0132,-0.0163,-0.0164,-0.014,-0.0174,-0.0148,-0.0178,-0.0179,-0.018,-0.018,0,0.0025,0.0033,0.004,0.0051,0.0051,0.0048,0.0037,0.0029,0.0001,-0.0014,-0.0042,-0.0068,-0.0102,-0.0105,-0.0151,-0.0136,-0.0158,-0.0175,-0.0177,-0.0168,-0.0161,-0.0148,-0.0188,-0.0187,-0.0186,-0.0186,-0.0185,0,0.002,0.0029,0.0039,0.0044,0.0051,0.0047,0.0044,0.0021,0.0005,-0.0027,-0.0052,-0.0083,-0.0115,-0.0137,-0.0171,-0.0167,-0.0214,-0.0214,-0.0222,-0.0221,-0.0218,-0.0215,-0.0248,-0.0248,-0.0248,-0.0248,-0.0248,0,0.0018,0.0023,0.0039,0.0045,0.0041,0.0048,0.0029,0.0018,-0.0009,-0.0039,-0.0059,-0.0094,-0.0127,-0.0158,-0.0176,-0.0207,-0.0218,-0.0228,-0.0232,-0.0219,-0.0216,-0.022,-0.0217,-0.0249,-0.0249,-0.0249,-0.0248,0,0.0009,0.0024,0.0032,0.0042,0.0041,0.0036,0.0019,-0.0005,-0.0017,-0.006,-0.0074,-0.0115,-0.0153,-0.0173,-0.0219,-0.0223,-0.0247,-0.0254,-0.0234,-0.0234,-0.024,-0.0236,-0.0274,-0.0274,-0.0274,-0.0274,-0.0274,0,0.0008,0.0015,0.0023,0.0014,0.0017,0.001,-0.0009,-0.0015,-0.0041,-0.0076,-0.0104,-0.0146,-0.0174,-0.0217,-0.0233,-0.0254,-0.0256,-0.0264,-0.026,-0.0245,-0.0244,-0.0241,-0.0237,-0.0274,-0.0274,-0.0274,-0.0274,0,-0.0001,0.0001,0.0002,-0.0013,-0.0027,-0.0045,-0.0065,-0.008,-0.0096,-0.0102,-0.0141,-0.0165,-0.0205,-0.0227,-0.0239,-0.0254,-0.0255,-0.0264,-0.0265,-0.026,-0.0245,-0.0244,-0.024,-0.0273,-0.0273,-0.0274,-0.0274,0,-0.002,-0.0027,-0.0032,-0.0047,-0.0069,-0.01,-0.0102,-0.0127,-0.0141,-0.016,-0.0173,-0.0198,-0.0211,-0.0229,-0.024,-0.0249,-0.0257,-0.0259,-0.026,-0.026,-0.0242,-0.0219,-0.0249,0,0,0,0,0,-0.0039,-0.0054,-0.0071,-0.0092,-0.0115,-0.0123,-0.0146,-0.0147,-0.0148,-0.0177,-0.017,-0.02,-0.0223,-0.0232,-0.0243,-0.0248,-0.0263,-0.0261,-0.0267,-0.0273,-0.0273,-0.0252,0,0,0,0,0,0,-0.0058,-0.0074,-0.0078,-0.0124,-0.0144,-0.0175,-0.0185,-0.0187,-0.0196,-0.0191,-0.0202,-0.0195,-0.0216,-0.0212,-0.0239,-0.0242,-0.0247,-0.0265,-0.0265,-0.0273,-0.0273,-0.0273,-0.0251,0,0,0,0,0]}]]